BEIDOU-3 M12 (C26)

Last updated on Wed Jul 02 2025 00:03:21 GMT+0000 (Coordinated Universal Time)

1 43602U 18067A 25182.27485291 .00000068 00000+0 00000+0 0 9995 2 43602 54.1935 192.9391 0007247 23.6970 336.3600 1.86227903 46587
UTC large
Height (km)
Speed (km/s)
/
Latitude / Longitude
Inclination (degrees)
Orbital Period (minutes)
Azimuth
Elevation
Range (km)
Doppler Factor

Next 0 passes for location: London (51.5072 / 0.1276)

Sorry there are no passes over London.